Simultaneous Nadir Overpasses (SNOs) Predictions

Prediction of SNOs near equator between AQUA and NPP Satellite Orbit:

Table of predicted SNOs near equator for the next 14.0 days since TLE Epoch: 7/23/2016
Index Date (AQUA) Time (AQUA) AQUA Lat,Lon Date (NPP) Time (NPP) NPP Lat,Lon Distance(km) Time Diff (sec)
1 07/24/2016 07:09:40 -29.99, -88.34 07/24/2016 06:59:40 -30.80, -88.68 95.83 600
2 07/24/2016 07:51:45 3.11, 85.44 07/24/2016 07:42:36 3.07, 85.34 11.64 549
3 07/24/2016 08:39:52 1.41,-105.94 07/24/2016 08:31:59 1.49,-106.31 41.52 473
4 07/24/2016 09:28:07 -6.02, 62.66 07/24/2016 09:21:29 -6.15, 62.03 70.83 398
5 07/24/2016 10:16:14 10.54,-128.71 07/24/2016 10:10:52 10.71,-129.60 99.51 322
6 07/26/2016 23:21:31 -13.25, 31.51 07/26/2016 23:11:34 -13.25, 31.51 0.23 597
7 07/27/2016 00:07:51 1.70,-158.39 07/26/2016 23:59:06 1.65,-158.57 20.83 525
8 07/27/2016 00:55:57 2.88, 10.25 07/27/2016 00:48:28 2.96, 9.79 50.82 449
9 07/27/2016 01:44:13 -7.43, 178.84 07/27/2016 01:37:59 -7.57, 178.12 79.92 374
10 07/29/2016 15:35:41 -4.84, 149.20 07/29/2016 15:26:05 -4.85, 149.20 0.52 576
11 07/29/2016 16:23:56 0.24, -42.20 07/29/2016 16:15:35 0.18, -42.47 30.20 501
12 07/29/2016 17:12:02 4.34, 126.43 07/29/2016 17:04:57 4.43, 125.90 60.09 425
13 07/29/2016 18:00:18 -8.89, -64.97 07/29/2016 17:54:28 -9.04, -65.77 88.86 350
14 08/01/2016 07:51:44 -3.33, -94.60 08/01/2016 07:42:32 -3.32, -94.69 9.80 552
15 08/01/2016 08:40:00 -1.20, 73.98 08/01/2016 08:32:03 -1.28, 73.64 39.65 477
16 08/01/2016 09:28:06 5.80,-117.38 08/01/2016 09:21:25 5.90,-118.00 69.31 401
17 08/01/2016 10:16:22 -10.33, 51.22 08/01/2016 10:10:56 -10.50, 50.34 97.71 326
18 08/03/2016 23:21:56 14.53,-148.80 08/03/2016 23:11:56 14.53,-148.80 0.58 600
19 08/04/2016 00:07:49 -1.89, 21.58 08/03/2016 23:59:01 -1.85, 21.42 19.32 528
20 08/04/2016 00:56:05 -2.64,-169.83 08/04/2016 00:48:32 -2.75,-170.26 49.14 453
21 08/04/2016 01:44:11 7.24, -1.19 08/04/2016 01:37:54 7.37, -1.89 78.48 377




NCC Satellite Simultaneous Nadir Overpasses (SNOs) Prediction Service
